sat.trackr.live / text

‹ back to catalog

STARLINK-36061

NORAD 66847 · 2025-280AC

PAYLOAD ACTIVE UNKNOWN

§ Identity

Operator
Country
US
Launch date
2025-12-02
Launch site
AFWTR
Launch vehicle
Mass (kg)
RCS (m²)

Purposes: comms

External: N2YO · Heavens-Above · Gunter

§ Orbital elements

Epoch: 2026-09-20T05:46:30.888192Z

Period
96.11 min
Inclination
70.0009°
Eccentricity
0.0002898
Mean motion
14.98338111 rev/d
Perigee alt
570.0 km
Apogee alt
574.0 km
Semi-major
6,950.2 km
B*
3.6639e-4
RAAN
204.0853°
Arg perigee
270.8188°
Mean anomaly
89.2639°
Rev number
4,521

§ Raw data

STARLINK-360611 66847U 25280AC  26263.24063528  .00004282  00000+0  36639-3 0  99922 66847  70.0009 204.0853 0002898 270.8188  89.2639 14.98338111 45210

JSON: /api/v1/satellites/66847 · /tle

For live sub-satellite position, see the globe view (requires WebGL).

§ Visibility from observer

Set your observer location to see the next 7 days of passes ≥ 10°. The values pass through the URL so the page stays shareable.

No JS? Fill the form by hand. The geolocation button needs JavaScript.